World > North America > United States > Alabama
Hourly Weather in Mount Hebron, AlabamaMount Hebron, Alabama Hourly Weather

Mount Hebron, AL Hourly Weather

Hourly Weather Mount Hebron, AlabamaHourly Weather in Mount Hebron, AL
Lat: 32.87N, Lon: 88.08W  ICAO: KTCL
Web Search

Ads allow us to feed your daily addiction for the world's greatest weather information. We're determined to offer quality sponsors, in the least annoying way possible.

Feedback

Mount Hebron Hourly Weather

36 Hour Weather Scroll   °F Click to change Mount Hebron hourly weather to Imperial units.Click to change Mount Hebron hourly weather to Metric units. °C
Currently, Clear, temperature is 47°F8°C, dew point 45°F7°C, humidity 93%. Wind direction is N at 0 mph0 km/h with visibility of 10.00 mi16 km. Barometric pressure is 30.21 in1023 mb.

Oct 17
5:00 AM

Oct 17
6:00 AM

Oct 17
7:00 AM

Oct 17
8:00 AM

Oct 17
9:00 AM

Oct 17
10:00 AM

Oct 17
11:00 AM

Oct 17
NOON

Oct 17
1:00 PM

Oct 17
2:00 PM

Oct 17
3:00 PM

Oct 17
4:00 PM

Oct 17
5:00 PM

Oct 17
6:00 PM

Oct 17
7:00 PM

Oct 17
8:00 PM

Oct 17
9:00 PM

Oct 17
10:00 PM

Oct 17
11:00 PM

Oct 18
MIDNIGHT

Oct 18
1:00 AM

Oct 18
2:00 AM

Oct 18
3:00 AM

Oct 18
4:00 AM

Oct 18
5:00 AM

Oct 18
6:00 AM

Oct 18
7:00 AM

Oct 18
8:00 AM

Oct 18
9:00 AM

Oct 18
10:00 AM

Oct 18
11:00 AM

Oct 18
NOON

Oct 18
1:00 PM

Oct 18
2:00 PM

Oct 18
3:00 PM

Oct 18
4:00 PM
Clear Clear Clear Clear Clear Clear Clear Clear Clear Clear Clear Clear Clear Clear Clear Clear Clear Clear Clear Clear Clear Clear Clear Clear Clear Clear Clear Clear Clear Clear Clear Clear Clear Clear Clear Clear
Clear Clear Clear Clear Clear Clear Clear Clear Clear Clear Clear Clear Clear Clear Clear Clear Clear Clear Clear Clear Clear Clear Clear Clear Clear Clear Clear Clear Clear Clear Clear Clear Clear Clear Clear Clear
45°F7°C 45°F7°C 44°F7°C 49°F9°C 55°F13°C 60°F16°C 63°F17°C 66°F19°C 69°F21°C 70°F21°C 71°F22°C 72°F22°C 68°F20°C 64°F18°C 60°F16°C 57°F14°C 54°F12°C 51°F11°C 50°F10°C 49°F9°C 48°F9°C 47°F8°C 47°F8°C 46°F8°C 46°F8°C 45°F7°C 45°F7°C 49°F9°C 54°F12°C 58°F14°C 62°F17°C 65°F18°C 69°F21°C 70°F21°C 71°F22°C 72°F22°C
- - - - - - - - - - - - - - - - - - - - - - - - - - - - - - - - - - - -
2% 2% 2% 1% 1% 1% 1% 1% 1% 0% 0% 0% 0% 0% 0% 0% 0% 0% 0% 0% 0% 0% 0% 0% 0% 0% 0% 1% 1% 1% 1% 1% 1% 1% 1% 1%
40°F4°C 39°F4°C 38°F3°C 39°F4°C 40°F4°C 41°F5°C 40°F4°C 39°F4°C 38°F3°C 37°F3°C 36°F2°C 35°F2°C 37°F3°C 38°F3°C 40°F4°C 41°F5°C 41°F5°C 42°F6°C 42°F6°C 41°F5°C 41°F5°C 41°F5°C 41°F5°C 41°F5°C 41°F5°C 40°F4°C 40°F4°C 41°F5°C 43°F6°C 44°F7°C 43°F6°C 43°F6°C 42°F6°C 42°F6°C 41°F5°C 41°F5°C
83% 79% 79% 68% 57% 49% 43% 37% 32% 30% 28% 26% 32% 38% 48% 55% 61% 71% 74% 74% 77% 80% 80% 83% 83% 83% 83% 74% 66% 60% 50% 45% 38% 36% 34% 33%
SE SSW N SSW SE NNE NNE N N SE SSW N N N N SSW SE N N N N N NNE NNE NNE NNE NNE NE NE ENE ENE ENE E E ENE ENE
3 mph 2 mph 2 mph 2 mph 9 mph 9 mph 9 mph 10 mph 10 mph 10 mph 10 mph 10 mph 10 mph 4 mph 4 mph 4 mph 1 mph 1 mph 1 mph 2 mph 2 mph 2 mph 2 mph 2 mph 2 mph 1 mph 1 mph 1 mph 4 mph 4 mph 4 mph 4 mph 4 mph 4 mph 4 mph 4 mph
10 mi16 km 10 mi16 km 10 mi16 km 10 mi16 km 10 mi16 km 10 mi16 km 10 mi16 km 10 mi16 km 10 mi16 km 10 mi16 km 10 mi16 km 10 mi16 km 10 mi16 km 10 mi16 km 10 mi16 km 10 mi16 km 10 mi16 km 10 mi16 km 10 mi16 km 10 mi16 km 10 mi16 km 10 mi16 km 10 mi16 km 10 mi16 km 10 mi16 km 10 mi16 km 10 mi16 km 10 mi16 km 10 mi16 km 10 mi16 km 10 mi16 km 10 mi16 km 10 mi16 km 10 mi16 km 10 mi16 km 10 mi16 km
Hour (CDT)
Weather
Clouds
Temperature
Precip. Type
POP
Dewpoint
Humidity
Wind Direction
Wind Speed
Visibility
POP = Probability of Precipitation. ** Indicates missing data/values from model statistics.

24 Hour Forecast

Today - Sunny. Highs in the lower 70s. North winds 5 to 10 mph.
Tonight - Clear in the evening then becoming partly cloudy. Patchy fog after midnight. Lows in the mid 40s. Light winds.

48 Hour Forecast API Feed


Sun, Oct 17
5:00 am

Sun, Oct 17
6:00 am

Sun, Oct 17
7:00 am

Sun, Oct 17
8:00 am

Sun, Oct 17
9:00 am

Sun, Oct 17
10:00 am

Sun, Oct 17
11:00 am

Sun, Oct 17
Noon

Sun, Oct 17
1:00 pm

Sun, Oct 17
2:00 pm

Sun, Oct 17
3:00 pm

Sun, Oct 17
4:00 pm

Sun, Oct 17
5:00 pm

Sun, Oct 17
6:00 pm

Sun, Oct 17
7:00 pm

Sun, Oct 17
8:00 pm

Sun, Oct 17
9:00 pm

Sun, Oct 17
10:00 pm

Sun, Oct 17
11:00 pm

Mon, Oct 18
Midnight

Mon, Oct 18
1:00 am

Mon, Oct 18
2:00 am

Mon, Oct 18
3:00 am

Mon, Oct 18
4:00 am

Mon, Oct 18
5:00 am

Mon, Oct 18
6:00 am

Mon, Oct 18
7:00 am

Mon, Oct 18
8:00 am

Mon, Oct 18
9:00 am

Mon, Oct 18
10:00 am

Mon, Oct 18
11:00 am

Mon, Oct 18
Noon

Mon, Oct 18
1:00 pm

Mon, Oct 18
2:00 pm

Mon, Oct 18
3:00 pm

Mon, Oct 18
4:00 pm

Mon, Oct 18
5:00 pm

Mon, Oct 18
6:00 pm

Mon, Oct 18
7:00 pm

Mon, Oct 18
8:00 pm

Mon, Oct 18
9:00 pm

Mon, Oct 18
10:00 pm

Mon, Oct 18
11:00 pm

Tue, Oct 19
Midnight

Tue, Oct 19
1:00 am

Tue, Oct 19
2:00 am

Tue, Oct 19
3:00 am

Tue, Oct 19
4:00 am
ClearClearSunnySunnySunnySunnySunnySunnySunnySunnySunnySunnySunnySunnyClearClearOvercastOvercastPartly CloudyClearClearPartly CloudyPartly CloudyPartly CloudyPartly CloudyPartly CloudyPartly CloudyPartly CloudyPartly CloudySunnySunnyOvercastPartly CloudyPartly CloudyPartly CloudyPartly CloudyOvercastCloudyPartly CloudyClearClearClearClearClearClearClearClearClear
Clear Clear Sunny Sunny Sunny Sunny Sunny Sunny Sunny Sunny Sunny Sunny Sunny Sunny Clear Clear Overcast Overcast Partly cloudy Clear Clear Partly cloudy Partly cloudy Partly cloudy Partly cloudy Partly cloudy Partly cloudy Partly cloudy Partly cloudy Sunny Sunny Overcast Partly cloudy Partly cloudy Partly cloudy Partly cloudy Overcast Cloudy Partly cloudy Clear Clear Clear Clear Clear Clear Clear Clear Clear
47°F
9°C
47°F
8°C
46°F
8°C
50°F
10°C
56°F
14°C
61°F
16°C
66°F
19°C
69°F
21°C
71°F
22°C
73°F
23°C
73°F
23°C
73°F
23°C
71°F
22°C
64°F
18°C
60°F
16°C
55°F
13°C
53°F
12°C
52°F
11°C
51°F
11°C
50°F
10°C
49°F
10°C
49°F
9°C
48°F
9°C
48°F
9°C
47°F
9°C
47°F
8°C
47°F
8°C
50°F
10°C
56°F
13°C
60°F
16°C
65°F
19°C
68°F
20°C
71°F
21°C
72°F
22°C
72°F
22°C
72°F
22°C
68°F
20°C
62°F
17°C
60°F
15°C
57°F
14°C
55°F
13°C
54°F
12°C
53°F
12°C
52°F
11°C
51°F
11°C
51°F
10°C
50°F
10°C
49°F
10°C
39°F
4°C
38°F
4°C
38°F
3°C
39°F
4°C
38°F
4°C
37°F
3°C
36°F
2°C
35°F
2°C
36°F
2°C
36°F
2°C
37°F
3°C
38°F
4°C
43°F
6°C
45°F
7°C
43°F
6°C
40°F
5°C
41°F
5°C
41°F
5°C
41°F
5°C
41°F
5°C
41°F
5°C
41°F
5°C
41°F
5°C
40°F
5°C
40°F
4°C
40°F
4°C
39°F
4°C
40°F
5°C
40°F
5°C
40°F
5°C
41°F
5°C
40°F
4°C
39°F
4°C
39°F
4°C
39°F
4°C
41°F
5°C
46°F
8°C
44°F
7°C
42°F
6°C
41°F
5°C
41°F
5°C
41°F
5°C
41°F
5°C
41°F
5°C
41°F
5°C
41°F
5°C
41°F
5°C
41°F
5°C
30.21 in
1023 mb
30.21 in
1023 mb
30.24 in
1024 mb
30.27 in
1025 mb
30.27 in
1025 mb
30.27 in
1025 mb
30.27 in
1025 mb
30.24 in
1024 mb
30.21 in
1023 mb
30.18 in
1022 mb
30.18 in
1022 mb
30.15 in
1021 mb
30.15 in
1021 mb
30.18 in
1022 mb
30.18 in
1022 mb
30.21 in
1023 mb
30.21 in
1023 mb
30.21 in
1023 mb
30.21 in
1023 mb
30.21 in
1023 mb
30.21 in
1023 mb
30.21 in
1023 mb
30.21 in
1023 mb
30.21 in
1023 mb
30.21 in
1023 mb
30.21 in
1023 mb
30.21 in
1023 mb
30.24 in
1024 mb
30.24 in
1024 mb
30.24 in
1024 mb
30.24 in
1024 mb
30.21 in
1023 mb
30.18 in
1022 mb
30.15 in
1021 mb
30.12 in
1020 mb
30.12 in
1020 mb
30.12 in
1020 mb
30.12 in
1020 mb
30.15 in
1021 mb
30.15 in
1021 mb
30.15 in
1021 mb
30.18 in
1022 mb
30.18 in
1022 mb
30.18 in
1022 mb
30.18 in
1022 mb
30.18 in
1022 mb
30.18 in
1022 mb
30.18 in
1022 mb
72%72%72%67%51%41%33%29%27%26%27%28%37%50%53%58%63%66%68%70%72%74%76%75%75%75%74%70%57%48%41%35%32%31%30%33%45%51%53%55%59%61%64%66%68%70%72%74%
NNNNNNENNENNENNENNENNENNNNNNENNENENENENNENENENENENENEENENEENEENEENEEENEENEENEENENENNENNENEEEEESEESEESEESESE
5 mph
9 km/h
5 mph
8 km/h
5 mph
8 km/h
4 mph
7 km/h
7 mph
12 km/h
8 mph
13 km/h
9 mph
14 km/h
9 mph
14 km/h
8 mph
13 km/h
8 mph
13 km/h
8 mph
13 km/h
8 mph
13 km/h
6 mph
10 km/h
5 mph
8 km/h
5 mph
9 km/h
5 mph
9 km/h
6 mph
9 km/h
5 mph
8 km/h
5 mph
8 km/h
4 mph
7 km/h
4 mph
7 km/h
4 mph
6 km/h
4 mph
7 km/h
4 mph
6 km/h
4 mph
7 km/h
4 mph
6 km/h
4 mph
6 km/h
3 mph
5 km/h
3 mph
5 km/h
4 mph
7 km/h
4 mph
6 km/h
4 mph
6 km/h
4 mph
6 km/h
4 mph
6 km/h
4 mph
6 km/h
4 mph
6 km/h
3 mph
5 km/h
4 mph
6 km/h
4 mph
6 km/h
4 mph
6 km/h
3 mph
5 km/h
3 mph
5 km/h
3 mph
5 km/h
4 mph
6 km/h
4 mph
6 km/h
3 mph
5 km/h
3 mph
5 km/h
2 mph
4 km/h
0%0%0%0%0%0%0%0%0%0%0%0%0%0%0%0%0%0%0%0%0%0%0%0%0%0%0%0%0%0%0%0%0%0%0%0%0%0%0%0%0%0%0%0%0%0%0%0%
6 mi
10 km
6 mi
10 km
6 mi
10 km
6 mi
10 km
6 mi
10 km
6 mi
10 km
6 mi
10 km
6 mi
10 km
6 mi
10 km
6 mi
10 km
6 mi
10 km
6 mi
10 km
6 mi
10 km
6 mi
10 km
6 mi
10 km
6 mi
10 km
6 mi
10 km
6 mi
10 km
6 mi
10 km
6 mi
10 km
6 mi
10 km
6 mi
10 km
6 mi
10 km
6 mi
10 km
6 mi
10 km
6 mi
10 km
6 mi
10 km
6 mi
10 km
6 mi
10 km
6 mi
10 km
6 mi
10 km
6 mi
10 km
6 mi
10 km
6 mi
10 km
6 mi
10 km
6 mi
10 km
6 mi
10 km
6 mi
10 km
6 mi
10 km
6 mi
10 km
6 mi
10 km
6 mi
10 km
6 mi
10 km
6 mi
10 km
6 mi
10 km
6 mi
10 km
6 mi
10 km
6 mi
10 km

Day/Time
Weather
Condition
Temperature
Dew Point
Pressure
Humidity
Wind Direction
Wind Speed
Prob Precip %
Visibility
Prob Precip % = Probability of Precipitation.